FENGYUN 1C DEB, 30316

Orbit data source: Space-Track

FENGYUN 1C DEB, 30316 is space debris in SSO originally from a launch on Mon, 10 May 1999 UTC launched from the Taiyaun Space Center, China (TSC). Fengyun 1C debris stems from the Chinese weather satellite Fengyun-1C, which was intentionally destroyed by a Chinese anti-satellite missile in 2007. This event dramatically increased the amount of space debris, with thousands of trackable fragments posing hazards to satellites and human spaceflight. The Fengyun 1C debris cloud has become a focal point in discussions about space sustainability and the need for international regulations to prevent the creation of new debris.

Loading next visibility...
Identifier
30316, 1999-025AAD
Orbit
SSO
Country
Flag of CNCN / PRC
Related business
Manufacturer
Unknown
Mission
Spacecraft
Bus & Motor
Unknown
Mass
Unknown
Launch date (UTC)
1999-05-10 (26 years ago)
Launch vehicle
Unknown
Launch site
Taiyaun Space Center, China (TSC)
Object type
Payload
Rocket body
Debris
Shape & HBR
Unknown
Radar Cross Section
Small (<0.1 m²)

Expand to show TLE details & history
Last TLE update: 10 hours ago

TLE from 10 hours ago
0 FENGYUN 1C DEB
1 30316U 99025AAD 25246.21069556  .00023716  00000-0  56891-2 0  9991
2 30316  98.6475 345.2488 0037440 345.9268  14.0880 14.52988430968753
Epoch: 2025-09-03T05:03Z
TLE epoch observation values (Epoch: 2025-09-03T05:03:24.096Z)
Latitude
-0.00005°
Longitude
-73.19244°
Altitude
693.106 km
Speed
7.523 km/s
True Right ascension
23h 00m 59s
True Declination
0° 00' 00"
Sunlit
Object was in full shadow at epoch
Visualization orbit readout
Latitude
Unknown
Longitude
Unknown
Altitude
Unknown
Speed
Unknown
Apparent Right ascension
Unknown
Apparent Declination
Unknown
Sunlit
N/A
Visualization observer readout
Local Sidereal Time
06:34:21
Azimuth
Unknown
Elevation
Unknown
Doppler factor
Unknown
Orbital elements
Apogee altitude
739.566 km
Perigee altitude
686.467 km
Semi-major axis
7,091.153 km
Eccentricity
0.00374
Inclination
98.6475°
RAAN
345.2488°
Arg. of periapsis
345.9268°
True anomaly
14.19291°
Mean anomaly
14.088°
Eccentric anomaly
14.14041°
Mean motion
3.63469 °/min
Orbital period
99.05 mins
BSTAR
0.0056891
Loading maneuver chart data...
Computing Atmospheric mass density...
Loading historical data...
Loading historical data...
Loading historical data...
Loading historical data...
Loading historical data...
Loading historical data...
Loading historical data...

Documentation

Showing up to 5 results
|